Погода в Кончанском-Суворовском

Россия / Новгородская область     58°39′19″N   34°04′04″E
темп.,
°C
ветер,
м/с
пор.,
м/с
влажн.,
%
обл.,
%
осадки,
мм/ч
давл.,
гПа
погр.,
м
19 апреля, пн
пн1900:00+6всв41071100 0.0 1028514
03:00+5всв397990 0.0 1028435
06:00+3всв3108551 0.0 1028382
09:00+6всв47665 0.0 1029701
12:00+9в46509 0.0 10281438
15:00+11в46400 0.0 10271758
18:00+9в45425 0.0 10271673
21:00+4в29580 0.0 1028299
20 апреля, вт
вт2000:00+2в311655 0.0 1028314
03:00+1в310785 0.0 1027268
06:000всв310805 0.0 1027291
09:00+4в4952100 0.0 1026780
12:00+7вюв5845100 0.0 10241262
15:00+5вюв5874100 0.0 1023903
18:00+7вюв4958100 0.0 10201394
21:00+3в41096100 0.1 1019815
21 апреля, ср
ср2100:00+3в3997100 0.3 1016762
03:00+3всв41097100 0.8 1013573
06:00+1всв41097100 1.4 1009462
09:00+1всв41097100 5.8 1006549
12:00+1всв3898100 2.3 1003392
15:00+2всв1399100 3.2 1002206
18:00+1зюз12100100 1.9 1001165
21:00+1зюз2698100 2.9 1002539
22 апреля, чт
чт2200:000юз3898100 0.3 1003573
03:00+2юз31198100 1.6 1005675
06:00+2ююз3998100 0.1 1006573
09:00+4ююз4995100 0.1 1008638
12:00+7ююз4882100 0.0 1009943
15:00+8ю3782100 0.1 1009932
18:00+9ю4107996 0.9 1010725
21:00+7ююз4995100 3.4 1010683
23 апреля, пт
пт2300:00+5ююз2891100 0.4 1012306
03:00+2ю229791 0.4 101239
06:00+2ююв279589 0.0 1012147
09:00+6ююв3781100 0.0 1011407
12:00+8ююз4769100 0.1 10101193
15:00+5зюз3587100 1.4 1010629
18:00+5ююз3788100 2.6 1011711
21:00+2ююв399623 2.6 1011280